Wind_Speed
19 22 25 26 28 30 30 32 31 33 35 36 32 23 19 20 14 10 8 11 16 5 7 4 7 4 4 6 2 13 8 7 6 7 4 3 3 4 5 5 7 4 4 1 3 5 5 31 9 7 12 23 25 27
19 21 24 25 28 28 30 31 32 31 33 35 33 25 17 18 15 11 6 12 22 4 5 6 3 5 1 8 11 5 5 6 4 3 2 2 3 3 5 2 8 4 2 3 2 3 1 21 5 19 21 23 28 31
19 20 22 25 25 30 30 30 32 32 32 34 33 26 16 16 15 13 10 12 23 4 3 1 2 3 5 6 16 7 5 4 4 10 4 2 1 3 3 2 2 8 14 1 8 4 22 32 5 40 34 36 41 38
19 21 21 24 25 26 31 31 31 32 32 33 33 27 16 15 15 15 12 12 21 5 1 3 2 5 4 10 24 17 12 10 13 9 5 2 1 8 2 2 3 3 12 9 6 7 29 2 35 43 44 41 41 39
19 21 22 22 25 25 27 31 32 31 32 34 33 26 16 14 15 16 11 6 20 8 4 4 7 4 6 19 9 5 4 5 3 3 1 1 3 3 3 3 2 3 3 3 4 22 18 27 39 39 39 41 38 36
18 22 24 22 24 25 27 28 31 32 32 33 33 25 14 12 13 14 3 4 18 14 2 3 3 4 12 19 4 4 6 3 2 2 4 4 3 3 2 1 9 14 14 14 12 29 31 39 32 26 36 37 34 29
18 20 24 24 25 24 27 28 30 32 32 32 33 24 12 9 10 6 5 11 15 10 3 5 8 5 15 13 10 10 7 5 4 3 4 3 6 4 3 2 9 25 24 26 15 22 18 17 29 35 32 31 26 24
20 19 24 24 27 25 26 27 30 29 32 32 31 22 11 9 8 7 8 9 10 5 3 2 4 7 18 10 9 14 10 5 7 4 3 3 3 4 1 4 21 23 25 16 26 26 26 28 29 29 28 25 24 20
26 19 23 24 26 27 27 26 31 30 30 30 28 17 10 3 4 7 13 8 6 3 1 3 2 4 12 6 6 8 6 3 4 3 2 2 1 1 4 14 20 21 17 26 30 29 26 28 29 28 26 23 20 17
29 24 22 24 24 27 27 27 29 29 29 26 15 6 4 3 13 11 3 2 2 1 2 3 1 2 8 7 5 9 4 1 2 2 2 2 2 4 5 12 14 16 18 21 27 32 35 34 31 29 25 21 17 14
28 27 23 25 26 26 26 26 28 28 27 14 8 5 12 13 8 2 2 3 4 3 1 2 3 2 3 1 2 3 3 2 2 2 1 1 2 5 8 11 11 13 15 16 17 20 21 22 24 24 22 18 14 9
29 29 26 24 27 26 25 25 25 25 19 18 17 24 11 2 2 3 1 3 1 3 4 3 3 1 1 1 1 4 1 3 3 5 3 3 3 3 10 11 11 12 14 15 14 16 18 19 18 16 14 12 8 5
28 31 29 23 25 26 27 26 24 24 23 18 5 3 3 2 1 5 4 3 2 7 8 5 1 1 2 1 0 2 3 3 5 3 3 4 4 5 10 11 11 10 11 12 13 12 12 12 12 11 9 5 1 4
29 32 30 28 28 26 24 26 23 23 11 4 3 5 4 3 5 4 3 3 5 6 10 5 4 1 1 2 1 2 3 2 3 2 5 3 6 7 8 9 11 11 11 11 12 12 11 11 10 9 8 6 7 12
29 28 30 31 28 24 24 22 26 21 6 5 4 5 7 9 5 6 8 9 7 12 8 5 5 1 2 2 1 2 4 4 6 5 3 6 4 7 8 9 9 9 9 9 10 11 11 10 9 9 10 10 12 16
29 31 36 36 33 27 25 30 28 22 5 8 11 4 7 3 6 10 16 12 13 13 8 4 4 3 2 3 1 6 6 6 4 3 7 6 7 8 8 8 8 8 8 8 8 8 8 8 9 8 7 9 11 14
29 39 46 41 32 27 32 30 25 11 10 8 11 19 15 7 8 13 18 15 19 14 3 5 4 7 4 1 3 5 5 4 8 12 7 7 8 7 6 7 8 7 7 6 6 6 5 5 5 4 7 10 10 11
46 51 49 40 29 28 33 33 11 10 11 17 8 13 17 14 10 10 16 18 20 13 11 4 9 4 6 6 4 5 16 10 9 9 6 8 8 7 6 6 7 7 6 6 5 4 4 3 3 4 5 6 7 8
41 40 36 34 33 31 11 13 13 9 20 7 13 13 11 9 17 12 15 22 21 17 7 7 3 4 5 9 11 9 12 13 12 10 8 8 9 9 7 6 7 6 6 6 5 4 3 3 1 0 1 2 4 5
34 33 30 34 34 23 10 8 12 7 7 8 10 11 8 6 11 14 17 24 21 10 6 5 6 9 10 13 12 12 9 11 10 10 9 9 10 10 8 6 7 7 7 5 4 3 2 3 1 1 1 1 2 3
23 25 26 27 37 23 7 8 8 5 4 7 7 9 4 7 8 14 16 22 12 9 7 23 26 19 18 15 13 12 12 11 9 9 7 10 12 11 9 7 7 7 7 7 6 5 5 5 4 4 3 2 2 2
21 21 22 29 17 11 8 11 5 8 6 3 9 8 4 5 8 11 13 14 10 18 20 24 23 20 22 23 21 16 12 11 9 9 9 9 13 12 10 9 8 7 7 8 8 8 7 6 4 3 3 3 4 3
21 18 15 13 8 10 3 11 6 7 3 7 7 3 3 5 7 13 6 11 13 17 24 29 31 30 23 19 19 18 15 11 10 10 10 9 11 11 10 9 9 9 8 8 8 8 8 7 6 4 4 4 5 6
17 5 6 8 8 4 6 5 4 5 4 3 3 4 4 5 9 5 4 6 10 12 15 18 19 16 15 18 20 17 13 11 11 11 10 9 8 8 8 7 7 7 8 8 9 9 9 9 8 6 5 5 5 5
3 5 5 3 5 6 5 4 4 4 3 4 4 3 3 6 2 3 4 5 5 9 12 12 12 14 16 17 16 15 14 11 10 9 9 9 8 7 7 7 7 7 7 8 9 9 9 8 8 7 6 5 5 6
4 4 4 6 3 5 4 5 5 4 2 4 3 4 4 2 3 6 2 4 6 8 7 9 12 15 14 12 12 13 11 11 11 10 9 8 7 7 7 7 7 7 7 7 8 8 8 8 7 6 6 6 6 8
4 3 2 2 5 6 3 3 4 3 4 5 3 4 3 4 5 3 4 6 6 8 1 7 8 10 8 7 9 10 10 10 10 9 8 8 7 7 8 8 8 9 7 7 8 8 7 7 6 6 6 6 6 7
2 4 1 1 2 4 3 3 4 4 2 3 8 4 3 3 1 3 3 4 5 2 9 13 12 11 8 9 8 7 8 9 9 8 8 8 8 8 8 8 9 9 8 8 8 7 6 6 5 5 5 6 7 9
2 4 4 2 2 1 3 3 3 2 1 4 2 2 1 2 3 3 3 1 2 7 8 9 9 9 9 8 7 6 7 7 7 8 8 8 8 6 7 8 9 10 11 10 10 6 5 2 5 9 8 8 10 12
6 9 3 4 3 1 3 3 3 3 2 3 2 2 2 3 3 2 1 2 4 7 7 6 6 7 5 4 4 6 6 7 7 7 6 5 5 5 5 6 6 7 9 10 10 10 10 10 10 11 11 11 12 13
6 5 3 4 2 4 4 4 3 3 3 2 2 2 2 2 2 1 2 3 4 5 6 6 6 4 4 4 5 5 5 5 5 5 4 4 4 4 5 5 6 6 7 8 9 9 9 9 9 9 10 12 13 14
6 5 4 2 2 4 4 4 4 3 4 3 4 3 3 2 2 3 2 3 5 5 6 6 5 6 6 7 6 5 5 5 4 5 5 4 4 4 4 4 4 5 5 5 6 8 11 12 14 15 15 15 14 15
3 6 4 2 3 4 5 4 3 2 3 3 4 5 3 3 2 3 4 4 3 5 9 9 9 7 6 6 7 7 6 6 5 6 5 4 4 3 1 3 4 5 7 9 10 13 14 15 15 14 15 15 15 17
Wind_Direction
351 355 4 4 2 1 360 0 2 4 4 6 4 359 358 1 352 9 14 359 346 289 287 295 337 326 345 47 62 315 352 5 340 27 32 317 332 337 343 51 340 29 312 313 211 216 240 354 12 45 330 318 327 329
339 342 346 359 2 360 358 358 358 359 1 3 2 359 353 356 354 353 354 349 346 220 283 305 21 14 157 52 8 321 259 280 296 17 9 345 337 322 324 342 7 25 38 283 27 321 347 339 70 3 345 328 327 324
325 330 335 341 354 0 359 357 355 355 358 0 360 357 349 350 351 347 331 335 -0 320 291 168 135 338 264 348 337 316 288 268 288 321 290 249 308 342 9 33 331 14 17 40 334 52 335 313 291 346 342 335 333 333
317 321 328 331 338 348 357 357 354 352 353 355 357 355 345 344 342 338 334 340 5 336 314 209 233 313 291 314 319 315 292 289 283 283 243 231 342 24 55 92 77 322 314 335 271 332 336 135 329 333 334 336 332 332
313 316 319 326 326 337 341 350 353 348 349 350 352 353 344 338 341 334 322 345 2 11 292 286 315 228 283 331 347 347 349 300 294 261 335 59 56 36 99 95 72 359 334 336 271 316 292 284 303 322 320 320 325 323
307 312 314 320 320 329 332 338 345 348 345 346 345 349 341 335 344 343 330 354 351 345 307 331 288 283 323 0 16 67 30 10 259 34 84 79 63 1 86 81 191 348 319 297 282 295 298 297 312 318 312 320 320 311
298 307 308 316 317 324 327 331 336 343 343 342 341 340 337 326 337 355 329 315 338 335 307 306 327 330 350 2 0 14 28 37 27 83 62 72 21 56 82 104 312 328 328 322 319 320 312 315 312 321 319 316 314 309
291 303 304 310 312 319 322 329 328 335 341 338 336 331 324 309 306 303 314 310 335 321 326 61 288 358 6 350 349 355 349 6 37 93 72 64 32 46 70 282 327 333 332 327 329 325 314 317 321 324 325 324 319 314
289 295 301 306 310 314 318 325 323 330 337 336 330 322 305 287 310 299 303 292 311 339 120 79 96 291 345 4 333 333 338 0 11 63 70 94 4 44 273 322 327 334 331 318 324 329 333 332 333 332 331 328 323 313
289 293 297 303 307 310 313 319 319 324 333 334 331 321 283 262 318 309 293 269 252 14 70 96 111 305 335 342 328 344 348 318 28 71 100 82 221 209 305 331 329 332 334 335 331 332 334 331 333 331 328 321 314 308
285 289 294 302 303 304 310 313 313 319 328 339 323 271 282 309 303 261 270 26 344 32 80 129 190 263 353 36 295 350 298 307 37 297 113 302 264 217 321 335 339 336 338 341 331 326 325 320 321 322 323 317 307 301
285 288 292 298 299 301 305 305 304 306 313 310 300 286 292 258 240 71 286 312 189 235 184 176 183 249 224 302 283 347 302 14 271 344 62 285 252 260 328 333 344 340 342 344 345 340 338 332 329 322 321 315 310 291
285 286 286 288 300 303 300 298 292 292 303 312 286 269 268 235 47 170 226 262 258 184 182 167 197 147 167 204 203 19 41 238 312 36 244 232 201 290 323 327 335 339 340 346 350 352 351 351 348 348 344 339 333 160
280 283 284 284 284 288 288 290 270 278 303 272 262 280 187 225 246 190 186 166 159 156 154 140 120 143 95 56 103 76 247 44 16 347 240 242 223 296 315 318 325 334 342 346 352 355 359 6 14 25 36 56 103 114
280 282 284 282 280 276 275 269 256 261 247 236 230 243 222 230 233 193 182 152 156 167 151 124 100 137 17 72 33 70 12 263 206 230 230 206 258 297 300 303 318 327 334 343 351 356 1 11 17 32 52 68 87 106
278 276 269 286 275 270 270 255 246 233 226 219 223 247 223 228 224 204 198 184 179 170 139 127 108 61 267 159 109 215 137 225 237 214 207 225 270 284 283 287 303 318 323 332 344 353 358 10 23 31 48 69 82 97
276 274 284 284 276 277 258 246 229 208 209 218 242 229 224 252 243 224 206 188 181 165 160 140 164 214 114 41 248 198 211 214 196 189 216 261 274 268 268 273 285 299 303 313 327 337 345 2 10 29 59 66 77 90
276 281 283 272 265 256 235 214 200 214 229 226 223 229 220 222 220 207 198 186 169 185 159 209 143 181 204 201 230 225 223 207 203 211 244 271 267 255 261 265 272 280 284 294 305 313 315 330 352 40 60 72 81 88
269 277 274 266 266 235 212 209 201 217 225 215 219 222 219 227 226 225 201 189 186 177 180 175 200 212 221 215 229 216 208 205 213 228 248 254 249 240 247 258 259 265 272 277 279 284 287 288 305 5 61 85 94 88
267 263 263 267 252 219 202 203 194 229 219 217 205 195 202 205 206 199 194 187 182 165 205 213 220 214 209 232 246 238 227 210 216 221 236 239 230 224 235 244 249 251 254 255 250 245 263 260 252 204 101 150 145 93
278 269 268 237 208 207 212 195 197 218 204 203 196 184 187 184 188 183 183 187 185 215 233 229 237 243 245 257 252 239 228 224 236 240 238 211 212 212 226 238 242 246 241 237 234 235 241 254 247 234 240 198 169 127
288 280 258 211 201 195 217 199 194 175 183 189 173 195 174 195 193 189 178 190 229 232 233 247 253 254 249 250 252 235 225 221 224 221 213 204 209 214 231 237 233 237 238 235 233 231 251 263 249 239 228 214 195 191
286 266 217 198 194 199 197 171 169 188 179 188 171 199 222 204 195 167 218 225 241 245 245 249 251 256 256 246 227 217 217 216 212 209 208 208 217 223 228 230 232 238 239 237 238 240 240 238 231 243 236 226 210 196
275 218 204 201 202 151 165 182 181 164 148 184 183 219 192 170 166 196 254 247 239 250 245 244 243 238 223 212 211 210 209 203 201 205 208 209 212 215 219 222 230 238 241 238 236 235 233 233 241 247 246 237 230 230
222 219 198 176 181 138 182 173 182 183 237 170 208 212 174 164 200 232 244 274 280 269 257 242 225 216 218 210 199 199 202 203 206 205 206 208 211 214 216 222 234 242 242 236 231 231 231 233 238 244 247 247 245 246
238 207 195 189 145 172 171 166 201 218 180 198 219 118 149 174 223 245 231 319 326 323 282 231 205 193 194 199 204 206 202 199 202 207 213 216 221 229 231 232 235 239 240 233 225 223 226 232 241 245 247 242 233 257
252 269 213 184 161 150 143 131 159 183 198 212 168 171 169 220 237 259 312 321 323 332 202 164 179 185 192 198 186 184 190 198 205 212 222 225 231 240 245 245 236 235 236 228 222 224 228 231 236 245 256 263 265 274
328 349 267 212 207 199 162 180 190 210 192 149 140 186 212 231 314 323 319 324 332 126 141 145 155 173 181 179 182 193 199 206 212 219 231 241 248 251 251 247 235 227 228 226 219 220 227 236 247 255 260 270 280 288
15 355 314 280 223 213 34 0 21 27 79 190 218 220 234 261 289 302 316 326 109 146 156 166 173 178 177 180 191 204 213 225 233 242 252 254 253 251 241 234 232 231 231 215 206 222 238 258 302 288 274 279 294 302
360 354 317 2 342 31 343 333 306 318 298 237 261 293 299 307 304 300 239 187 167 161 167 174 183 178 186 206 224 232 237 240 244 249 252 246 239 231 223 216 214 215 216 214 216 227 234 239 248 267 274 279 293 301
345 349 19 27 19 341 333 348 357 358 341 335 326 285 289 318 329 313 237 207 192 189 189 193 200 213 236 250 251 242 230 226 231 235 233 234 230 217 219 222 218 209 204 212 225 233 243 253 263 269 273 280 284 296
17 25 356 3 342 354 352 2 358 355 360 3 3 4 354 347 337 347 333 260 234 225 220 220 230 241 245 250 242 225 217 231 242 228 216 214 211 207 207 215 225 227 228 235 246 262 264 267 272 277 282 285 283 294
18 16 25 11 356 357 354 347 357 347 23 21 9 5 358 346 312 350 357 348 307 253 234 233 246 255 248 229 231 223 224 237 231 216 208 202 188 166 117 323 301 284 287 289 284 283 285 287 285 280 282 282 288 297
Height
1579 1575 1570 1565 1561 1556 1551 1547 1541 1535 1529 1523 1517 1513 1509 1505 1503 1500 1497 1497 1498 1493 1491 1489 1488 1486 1486 1486 1489 1479 1472 1468 1465 1467 1472 1469 1458 1446 1441 1449 1446 1449 1459 1422 1422 1411 1404 1440 1424 1430 1454 1442 1438 1429
1577 1574 1571 1565 1561 1556 1551 1546 1542 1536 1529 1524 1518 1513 1510 1507 1504 1501 1497 1497 1493 1491 1491 1490 1489 1487 1485 1485 1485 1482 1483 1479 1474 1475 1475 1474 1469 1456 1452 1443 1460 1465 1479 1472 1467 1453 1457 1457 1454 1455 1452 1446 1435 1428
1574 1571 1568 1565 1560 1556 1551 1546 1541 1536 1530 1524 1518 1512 1509 1506 1504 1502 1498 1495 1493 1492 1490 1489 1487 1487 1485 1483 1484 1484 1478 1477 1475 1477 1474 1472 1472 1467 1468 1477 1473 1480 1481 1475 1470 1459 1456 1446 1451 1450 1446 1440 1431 1425
1570 1568 1565 1563 1559 1555 1551 1545 1540 1534 1528 1523 1517 1512 1508 1506 1504 1502 1499 1496 1494 1493 1491 1489 1488 1486 1486 1485 1480 1476 1474 1474 1473 1473 1471 1470 1471 1471 1478 1482 1489 1493 1486 1480 1473 1464 1449 1443 1443 1446 1437 1435 1428 1421
1567 1565 1562 1559 1557 1553 1549 1544 1539 1533 1527 1522 1517 1511 1507 1505 1503 1501 1499 1497 1494 1496 1492 1487 1487 1486 1485 1483 1476 1474 1472 1472 1471 1470 1469 1473 1474 1476 1481 1485 1495 1493 1492 1488 1478 1472 1475 1460 1451 1444 1439 1434 1428 1422
1563 1562 1560 1556 1554 1550 1547 1543 1538 1532 1526 1520 1515 1510 1506 1503 1502 1500 1499 1497 1494 1492 1492 1490 1485 1483 1482 1479 1475 1473 1471 1470 1470 1470 1472 1475 1477 1477 1484 1488 1488 1488 1487 1484 1476 1471 1466 1456 1449 1444 1440 1430 1424 1420
1558 1557 1556 1553 1551 1547 1544 1540 1536 1532 1525 1519 1513 1508 1505 1503 1502 1502 1502 1498 1494 1492 1491 1488 1483 1482 1480 1476 1475 1473 1471 1470 1470 1471 1474 1477 1478 1478 1489 1495 1486 1483 1480 1476 1472 1467 1456 1451 1445 1439 1435 1428 1422 1415
1553 1552 1551 1548 1547 1543 1540 1537 1533 1529 1524 1518 1512 1506 1503 1501 1499 1499 1498 1497 1494 1492 1491 1493 1487 1483 1482 1480 1477 1475 1473 1471 1471 1473 1477 1479 1481 1482 1492 1485 1482 1479 1474 1469 1467 1464 1458 1450 1443 1436 1429 1422 1415 1411
1549 1546 1545 1544 1542 1539 1536 1533 1530 1525 1521 1515 1509 1504 1501 1500 1499 1499 1495 1494 1492 1494 1490 1493 1500 1499 1487 1485 1484 1481 1479 1477 1475 1476 1479 1481 1485 1491 1485 1483 1479 1474 1472 1466 1460 1456 1450 1444 1436 1431 1425 1420 1416 1411
1543 1541 1540 1539 1536 1534 1532 1529 1526 1521 1517 1512 1506 1503 1499 1499 1497 1496 1493 1493 1491 1490 1491 1493 1496 1497 1495 1490 1486 1486 1482 1482 1484 1481 1479 1483 1482 1480 1480 1479 1475 1472 1467 1462 1454 1445 1441 1437 1434 1429 1424 1420 1416 1411
1535 1535 1533 1532 1531 1529 1527 1524 1521 1517 1515 1511 1507 1503 1497 1495 1494 1492 1491 1492 1493 1492 1491 1493 1494 1495 1494 1495 1493 1490 1489 1484 1492 1483 1483 1485 1480 1476 1475 1473 1472 1469 1465 1461 1457 1452 1446 1441 1435 1430 1424 1420 1416 1409
1528 1528 1526 1525 1525 1523 1521 1519 1516 1514 1513 1510 1507 1499 1495 1493 1492 1492 1497 1495 1494 1492 1491 1491 1492 1493 1492 1492 1493 1491 1491 1488 1491 1484 1491 1487 1475 1473 1472 1469 1467 1465 1462 1459 1455 1450 1446 1441 1435 1431 1425 1421 1414 1407
1519 1520 1519 1517 1517 1517 1516 1514 1512 1509 1508 1504 1500 1497 1494 1492 1491 1491 1488 1491 1491 1485 1487 1489 1491 1491 1491 1492 1491 1492 1495 1493 1487 1497 1486 1476 1470 1470 1469 1466 1464 1462 1459 1457 1454 1450 1446 1442 1437 1432 1427 1422 1416 1411
1510 1511 1510 1510 1508 1508 1507 1506 1505 1505 1505 1503 1499 1496 1491 1489 1484 1477 1476 1476 1478 1480 1483 1485 1488 1490 1491 1491 1492 1495 1493 1493 1503 1506 1483 1468 1464 1465 1464 1463 1461 1459 1456 1454 1452 1450 1446 1443 1440 1436 1431 1426 1420 1414
1501 1501 1501 1500 1500 1500 1499 1497 1496 1499 1501 1499 1498 1492 1483 1471 1471 1470 1472 1473 1475 1478 1480 1483 1487 1490 1491 1494 1493 1493 1497 1497 1490 1475 1466 1459 1460 1460 1460 1460 1459 1457 1455 1452 1450 1448 1446 1443 1441 1439 1435 1432 1427 1422
1492 1489 1487 1489 1490 1490 1490 1486 1488 1491 1492 1489 1484 1474 1468 1470 1466 1465 1467 1469 1472 1476 1479 1482 1487 1493 1493 1494 1493 1490 1495 1483 1462 1458 1454 1456 1456 1455 1455 1456 1456 1455 1453 1451 1449 1447 1446 1444 1442 1440 1438 1435 1432 1429
1482 1474 1477 1476 1477 1479 1474 1477 1479 1480 1479 1476 1463 1457 1457 1457 1457 1457 1459 1462 1467 1474 1476 1480 1485 1478 1490 1496 1491 1480 1469 1449 1445 1447 1451 1452 1452 1451 1451 1451 1452 1452 1452 1450 1448 1447 1446 1445 1443 1442 1440 1438 1436 1435
1465 1463 1464 1466 1466 1463 1464 1464 1467 1466 1460 1454 1454 1450 1450 1450 1450 1451 1453 1458 1463 1468 1471 1472 1473 1478 1473 1472 1460 1444 1440 1441 1444 1444 1446 1449 1449 1448 1448 1448 1449 1449 1450 1449 1447 1446 1446 1445 1444 1443 1442 1441 1440 1440
1454 1453 1453 1454 1453 1454 1453 1455 1455 1450 1446 1444 1442 1443 1445 1445 1446 1447 1450 1453 1456 1460 1463 1464 1466 1461 1448 1440 1435 1434 1434 1434 1438 1441 1441 1442 1446 1446 1445 1445 1446 1447 1448 1447 1446 1446 1445 1445 1444 1444 1444 1443 1443 1442
1442 1443 1445 1444 1442 1442 1442 1442 1442 1440 1438 1437 1437 1437 1438 1438 1440 1442 1446 1449 1453 1458 1458 1453 1438 1427 1427 1428 1429 1431 1430 1431 1434 1435 1436 1438 1440 1442 1443 1443 1443 1444 1445 1445 1445 1445 1445 1445 1445 1444 1444 1444 1444 1444
1432 1430 1431 1433 1429 1433 1433 1432 1434 1435 1434 1435 1434 1435 1435 1436 1438 1439 1442 1446 1450 1445 1435 1423 1418 1421 1423 1425 1426 1427 1428 1428 1429 1431 1432 1434 1438 1439 1440 1441 1441 1442 1443 1443 1444 1444 1445 1445 1445 1445 1445 1445 1445 1445
1426 1424 1422 1422 1422 1424 1425 1426 1427 1430 1433 1432 1433 1433 1432 1434 1433 1434 1436 1440 1431 1416 1415 1412 1414 1417 1417 1419 1422 1423 1425 1426 1426 1428 1430 1432 1434 1435 1437 1438 1439 1440 1440 1441 1442 1443 1444 1444 1444 1444 1445 1445 1446 1446
1420 1420 1419 1419 1421 1420 1423 1421 1424 1426 1429 1429 1430 1430 1428 1427 1428 1429 1427 1419 1409 1402 1405 1407 1408 1408 1410 1413 1417 1419 1421 1422 1423 1425 1427 1429 1432 1432 1433 1435 1436 1438 1438 1439 1440 1441 1442 1443 1443 1443 1444 1444 1445 1446
1413 1415 1416 1415 1415 1420 1421 1420 1422 1424 1425 1425 1425 1421 1421 1423 1425 1425 1417 1404 1396 1397 1398 1399 1401 1403 1406 1408 1412 1415 1418 1420 1422 1424 1426 1427 1429 1430 1431 1432 1434 1435 1436 1437 1438 1438 1440 1441 1441 1442 1443 1443 1444 1444
1414 1411 1411 1412 1413 1416 1417 1418 1418 1420 1416 1419 1420 1416 1418 1421 1422 1419 1410 1397 1394 1394 1394 1395 1398 1401 1404 1407 1411 1414 1416 1418 1420 1422 1424 1426 1427 1428 1429 1430 1431 1432 1433 1434 1435 1436 1438 1439 1440 1440 1441 1442 1442 1443
1412 1407 1409 1405 1410 1412 1412 1415 1417 1416 1415 1414 1413 1416 1417 1418 1417 1405 1401 1398 1396 1395 1394 1394 1395 1399 1404 1408 1410 1412 1415 1417 1419 1421 1422 1424 1425 1426 1427 1428 1429 1430 1431 1432 1433 1434 1436 1437 1438 1438 1439 1440 1440 1440
1409 1406 1405 1405 1406 1408 1410 1410 1411 1412 1412 1410 1412 1415 1416 1413 1405 1401 1399 1398 1397 1395 1393 1394 1398 1402 1406 1408 1410 1412 1414 1416 1418 1420 1421 1422 1423 1424 1425 1426 1426 1428 1429 1430 1431 1432 1433 1434 1435 1436 1437 1437 1438 1438
1409 1408 1409 1407 1406 1406 1406 1406 1406 1405 1404 1406 1409 1410 1408 1404 1401 1401 1399 1399 1397 1396 1396 1398 1400 1403 1406 1408 1410 1412 1413 1415 1417 1418 1419 1420 1420 1421 1422 1422 1424 1425 1426 1428 1429 1430 1431 1432 1433 1434 1434 1435 1435 1435
1409 1409 1409 1407 1406 1406 1407 1407 1406 1406 1406 1406 1405 1403 1403 1402 1402 1401 1400 1400 1399 1399 1400 1402 1403 1405 1407 1408 1410 1411 1413 1414 1415 1415 1416 1417 1417 1418 1418 1419 1421 1422 1424 1426 1427 1429 1430 1431 1432 1432 1432 1432 1432 1432
1411 1410 1409 1408 1408 1407 1410 1408 1408 1407 1406 1405 1405 1404 1403 1402 1402 1401 1401 1401 1401 1402 1403 1404 1406 1407 1408 1409 1410 1411 1412 1412 1413 1414 1414 1415 1415 1416 1416 1417 1419 1420 1422 1423 1425 1426 1427 1428 1429 1429 1429 1429 1429 1428
1413 1412 1411 1411 1412 1412 1410 1409 1408 1407 1406 1405 1405 1405 1404 1403 1403 1402 1402 1402 1402 1403 1404 1405 1406 1407 1407 1408 1409 1409 1410 1411 1412 1412 1413 1414 1414 1415 1416 1416 1417 1419 1420 1421 1423 1424 1425 1425 1426 1426 1426 1426 1426 1424
1415 1414 1414 1413 1414 1413 1411 1410 1409 1408 1407 1406 1406 1405 1405 1404 1404 1404 1403 1403 1403 1404 1404 1405 1406 1406 1407 1407 1408 1408 1409 1410 1410 1411 1412 1413 1413 1414 1415 1416 1417 1418 1419 1420 1421 1421 1422 1422 1422 1421 1421 1421 1420 1420
1417 1416 1416 1416 1415 1414 1413 1412 1411 1410 1409 1408 1407 1407 1406 1406 1405 1405 1404 1403 1403 1403 1403 1404 1404 1405 1405 1406 1407 1408 1408 1409 1409 1410 1411 1412 1412 1413 1415 1416 1416 1417 1417 1417 1417 1417 1417 1416 1416 1416 1416 1415 1415 1414